Weather History for Garrison, ND

Change the Weather History Date:

Thursday, April 4, 2013

  Actual Average Record
Temperature  
Mean Temperature 31 °F -  
Max Temperature 36 °F 43 °F 64 °F (2004)
Min Temperature 26 °F 23 °F 1 °F (2007)
Degree Days  
Heating Degree Days 34    
Month to date heating degree days 148  
Moisture  
Dew Point 22 °F    
Average Humidity 72    
Maximum Humidity 85    
Minimum Humidity 59    
Precipitation  
Precipitation 0.00 in - - ()
Month to date precipitation 0.00  
Year to date precipitation 2.07  
Sea Level Pressure  
Sea Level Pressure 30.27 in    
Wind  
Wind Speed 9 mph (North)    
Max Wind Speed 17 mph    
Max Gust Speed 20 mph    
Averages and records for this station are not official NWS values.
T = Trace of Precipitation, MM = Missing Value Source: NWS Daily Summary

Daily Weather History Graph

Daily Weather History Graph

Search for Another Location

Airport:

Trip Planner

Search our weather history database for the weather conditions in past years. The results will help you decide how hot, cold, wet, or windy it might be!

Date:

Astronomy

Apr. 04, 2013 Rise Set
Actual Time 7:17 AM CDT 8:20 PM CDT
Civil Twilight 6:46 AM CDT 8:51 PM CDT
Nautical Twilight 6:08 AM CDT 9:29 PM CDT
Astronomical Twilight 5:28 AM CDT 10:09 PM CDT
Moon 4:09 AM CDT (4/4) 2:18 PM CDT (4/4)
Length of Visible Light 14h 05m
Length of Day
13h 02m
Waning Crescent, 33% of the Moon is Illuminated
Apr 4
Waning Crescent
Apr 10
New
Apr 18
First Quarter
Apr 25
Full
May 2
Last Quarter

Hourly Weather History & Observations

Time (CDT) Temp. Windchill Dew Point Humidity Pressure Visibility Wind Dir Wind Speed Gust Speed Precip Events Conditions
12:52 AM 30.0 °F 20.0 °F 25.0 °F 82% 30.19 in - NW 12.7 mph - N/A   Unknown
1:52 AM 30.0 °F 19.1 °F 25.0 °F 82% 30.19 in - NW 15.0 mph - N/A   Unknown
2:52 AM 28.0 °F 18.6 °F 24.1 °F 85% 30.21 in - WNW 10.4 mph - N/A   Unknown
3:52 AM 27.0 °F 17.3 °F 23.0 °F 85% 30.22 in - NW 10.4 mph - N/A   Unknown
4:52 AM 27.0 °F 15.6 °F 23.0 °F 85% 30.24 in - NW 13.8 mph - N/A   Unknown
5:52 AM 26.1 °F 16.2 °F 21.9 °F 84% 30.27 in - WNW 10.4 mph - N/A   Unknown
6:52 AM 28.0 °F 18.6 °F 23.0 °F 81% 30.27 in - NW 10.4 mph - N/A   Unknown
7:52 AM 28.0 °F 20.0 °F 23.0 °F 81% 30.28 in - NNW 8.1 mph - N/A   Unknown
8:52 AM 28.9 °F 20.4 °F 23.0 °F 78% 30.30 in - NNW 9.2 mph - N/A   Unknown
9:52 AM 30.0 °F 20.5 °F 23.0 °F 75% 30.30 in - North 11.5 mph - N/A   Unknown
10:52 AM 33.1 °F 24.9 °F 21.9 °F 64% 30.30 in - North 10.4 mph - N/A   Unknown
11:52 AM 33.1 °F 27.7 °F 21.9 °F 64% 30.32 in - NNE 5.8 mph - N/A   Unknown
12:52 PM 34.0 °F 27.2 °F 21.0 °F 59% 30.32 in - NNE 8.1 mph - N/A   Unknown
1:52 PM 34.0 °F 28.0 °F 21.0 °F 59% 30.30 in - NNE 6.9 mph - N/A   Unknown
2:52 PM 36.0 °F 30.3 °F 23.0 °F 59% 30.30 in - North 6.9 mph - N/A   Unknown
3:52 PM 34.0 °F 28.0 °F 21.9 °F 61% 30.28 in - Variable 6.9 mph - N/A   Unknown
4:52 PM 34.0 °F 28.8 °F 21.9 °F 61% 30.28 in - NE 5.8 mph - N/A   Unknown
5:52 PM 33.1 °F 26.9 °F 21.0 °F 61% 30.28 in - NE 6.9 mph - N/A   Unknown
6:52 PM 32.0 °F 25.6 °F 21.0 °F 64% 30.28 in - ENE 6.9 mph - N/A   Unknown
7:52 PM 30.0 °F 24.1 °F 19.0 °F 64% 30.27 in - ENE 5.8 mph - N/A   Unknown
8:52 PM 28.0 °F 19.3 °F 19.9 °F 72% 30.26 in - East 9.2 mph - N/A   Unknown
9:52 PM 27.0 °F 17.3 °F 21.9 °F 81% 30.25 in - East 10.4 mph - N/A   Unknown
10:52 PM 26.1 °F 15.6 °F 23.0 °F 88% 30.24 in - ESE 11.5 mph - N/A   Unknown
11:52 PM 26.1 °F 15.6 °F 21.9 °F 84% 30.22 in - ESE 11.5 mph - N/A   Unknown